FW5884 Weather Reports


time (UTC)temp
C
wind
direction
speed
KPH
gust
KPH
rain 1hr
cm
rain 24hr
cm
rain mn
cm
humidity
%
barometer
mb
20260502232005 11 121 0.0 0.0 0.00 0.00 0.00 74 1020.5
20260502231505 11 121 0.0 0.0 0.00 0.00 0.00 74 1020.5
20260502231005 11 122 0.0 0.0 0.00 0.00 0.00 73 1020.4
20260502230504 11 121 0.0 0.0 0.00 0.00 0.00 74 1020.5
20260502230004 11 121 0.0 0.0 0.00 0.00 0.00 73 1020.5
20260502225503 11 121 0.0 0.0 0.00 0.00 0.00 73 1020.6
20260502225005 11 121 0.0 0.0 0.00 0.00 0.00 73 1020.6
20260502224501 11 121 0.0 0.0 0.00 0.00 0.00 72 1020.7
20260502224103 11 121 0.0 0.0 0.00 0.00 0.00 72 1020.7
20260502223600 11 121 0.0 0.0 0.00 0.00 0.00 72 1020.8
20260502223100 11 122 0.0 0.0 0.00 0.00 0.00 72 1020.7
20260502222559 11 121 0.0 0.0 0.00 0.00 0.00 71 1020.8
20260502222056 11 121 0.0 0.0 0.00 0.00 0.00 71 1020.8
20260502221612 12 121 0.0 0.0 0.00 0.00 0.00 71 1020.7
20260502221054 12 121 0.0 0.0 0.00 0.00 0.00 71 1020.8
20260502220553 12 121 0.0 0.0 0.00 0.00 0.00 71 1020.9
20260502220059 12 122 0.0 0.0 0.00 0.00 0.00 70 1020.9
20260502215552 12 121 0.0 0.0 0.00 0.00 0.00 70 1020.9
20260502215053 12 121 0.0 0.0 0.00 0.00 0.00 69 1020.8
20260502214551 12 121 0.0 0.0 0.00 0.00 0.00 69 1020.8
20260502214050 12 121 0.0 0.0 0.00 0.00 0.00 68 1020.9
20260502213555 12 121 0.0 0.0 0.00 0.00 0.00 67 1020.9
20260502213050 12 122 0.0 0.0 0.00 0.00 0.00 68 1020.9
20260502212550 12 121 0.0 0.0 0.00 0.00 0.00 67 1020.9
20260502212049 12 121 0.0 0.0 0.00 0.00 0.00 67 1020.8
20260502211548 13 121 0.0 0.0 0.00 0.00 0.00 67 1020.9
20260502211048 13 122 0.0 0.0 0.00 0.00 0.00 67 1020.9
20260502210548 13 121 0.0 0.0 0.00 0.00 0.00 67 1020.9
20260502210104 13 121 0.0 0.0 0.00 0.00 0.00 66 1020.8
20260502205550 13 120 0.0 0.0 0.00 0.00 0.00 65 1020.9
20260502205049 13 120 0.0 1.6 0.00 0.00 0.00 66 1021.1
20260502204550 13 95 0.0 1.6 0.00 0.00 0.00 66 1021.0
20260502204048 13 124 0.0 0.0 0.00 0.00 0.00 65 1021.0
20260502203548 13 124 0.0 0.0 0.00 0.00 0.00 65 1021.0
20260502203048 13 124 0.0 0.0 0.00 0.00 0.00 66 1021.0
20260502202547 13 124 0.0 0.0 0.00 0.00 0.00 67 1021.0
20260502202047 13 124 0.0 0.0 0.00 0.00 0.00 66 1021.0
20260502201550 13 124 0.0 0.0 0.00 0.00 0.00 66 1021.0
20260502201047 13 124 0.0 0.0 0.00 0.00 0.00 66 1021.0
20260502200547 14 124 0.0 0.0 0.00 0.00 0.00 66 1021.1
20260502200104 14 124 0.0 0.0 0.00 0.00 0.00 65 1021.1
20260502195549 14 124 0.0 0.0 0.00 0.00 0.00 64 1021.1
20260502195045 14 124 0.0 0.0 0.00 0.00 0.00 64 1021.1
20260502194545 15 124 0.0 0.0 0.00 0.00 0.00 63 1021.1
20260502194045 15 124 0.0 0.0 0.00 0.00 0.00 63 1020.9
20260502193545 15 124 0.0 0.0 0.00 0.00 0.00 63 1020.9
20260502193047 15 124 0.0 0.0 0.00 0.00 0.00 62 1020.9
20260502192545 15 124 0.0 0.0 0.00 0.00 0.00 62 1020.9
20260502192044 15 124 0.0 0.0 0.00 0.00 0.00 61 1020.8
20260502191556 15 124 0.0 0.0 0.00 0.00 0.00 60 1020.8
20260502191048 15 124 0.0 0.0 0.00 0.00 0.00 60 1020.8
20260502190544 16 124 0.0 0.0 0.00 0.00 0.00 59 1020.8
20260502190049 16 124 0.0 0.0 0.00 0.00 0.00 58 1020.7
20260502185543 16 124 0.0 0.0 0.00 0.00 0.00 58 1020.8
20260502185043 16 124 0.0 0.0 0.00 0.00 0.00 57 1020.7
20260502184545 16 124 0.0 0.0 0.00 0.00 0.00 56 1020.6
20260502184143 17 124 0.0 0.0 0.00 0.00 0.00 54 1020.6
20260502183546 17 124 0.0 0.0 0.00 0.00 0.00 54 1020.6
20260502183043 17 124 0.0 0.0 0.00 0.00 0.00 53 1020.4
20260502182542 17 124 0.0 0.0 0.00 0.00 0.00 53 1020.4
20260502182042 17 124 0.0 0.0 0.00 0.00 0.00 52 1020.4
20260502181542 17 124 0.0 0.0 0.00 0.00 0.00 51 1020.4
20260502181042 18 124 0.0 0.0 0.00 0.00 0.00 49 1020.4
20260502180542 18 124 0.0 0.0 0.00 0.00 0.00 49 1020.3
20260502164038 21 181 0.0 4.8 0.00 0.00 0.00 44 1020.2
20260502163537 22 81 0.0 6.4 0.00 0.00 0.00 43 1020.3
20260502163046 22 143 0.0 6.4 0.00 0.00 0.00 43 1020.3
20260502162536 22 150 0.0 6.4 0.00 0.00 0.00 42 1020.3
20260502162038 22 161 0.0 6.4 0.00 0.00 0.00 42 1020.3
20260502161534 22 155 1.6 6.4 0.00 0.00 0.00 42 1020.3
20260502161034 23 124 1.6 8.0 0.00 0.00 0.00 41 1020.2
20260502160534 23 171 0.0 8.0 0.00 0.00 0.00 40 1020.3
20260502152031 24 266 0.0 8.0 0.00 0.00 0.00 38 1020.6
20260502151554 24 300 0.0 9.7 0.00 0.00 0.00 39 1020.7
20260502151028 24 75 0.0 9.7 0.00 0.00 0.00 39 1020.8
20260502150528 25 101 0.0 4.8 0.00 0.00 0.00 38 1020.9
20260502130516 25 98 0.0 8.0 0.00 0.00 0.00 34 1021.8
20260502123512 24 258 0.0 9.7 0.00 0.00 0.00 38 1022.2
20260502123012 24 40 0.0 6.4 0.00 0.00 0.00 35 1022.3
20260502122511 23 312 1.6 8.0 0.00 0.00 0.00 35 1022.2
20260502122010 23 311 0.0 9.7 0.00 0.00 0.00 35 1022.4
20260502121513 24 51 1.6 11.3 0.00 0.00 0.00 35 1022.5
20260502121010 24 326 1.6 11.3 0.00 0.00 0.00 35 1022.5
20260502120509 24 284 0.0 11.3 0.00 0.00 0.00 34 1022.6
20260502115508 24 310 3.2 11.3 0.00 0.00 0.00 34 1022.6
20260502115007 24 284 0.0 6.4 0.00 0.00 0.00 35 1022.6
20260502114507 24 110 0.0 11.3 0.00 0.00 0.00 35 1022.7
20260502114006 23 155 0.0 11.3 0.00 0.00 0.00 35 1022.7
20260502113506 23 243 0.0 9.7 0.00 0.00 0.00 35 1022.8
20260502113005 23 56 0.0 9.7 0.00 0.00 0.00 34 1022.8
20260502112503 23 163 1.6 8.0 0.00 0.00 0.00 36 1022.9
20260502112005 23 312 0.0 8.0 0.00 0.00 0.00 36 1023.0
20260502111502 23 42 0.0 8.0 0.00 0.00 0.00 35 1023.1
20260502111001 23 281 0.0 9.7 0.00 0.00 0.00 34 1023.1
20260502110502 23 115 0.0 11.3 0.00 0.00 0.00 35 1023.2
20260502110002 23 319 1.6 11.3 0.00 0.00 0.00 34 1023.2
20260502105601 23 266 0.0 6.4 0.00 0.00 0.00 36 1023.3
20260502105059 23 273 0.0 9.7 0.00 0.00 0.00 34 1023.3
20260502104558 23 59 1.6 9.7 0.00 0.00 0.00 33 1023.4
20260502104057 23 307 0.0 8.0 0.00 0.00 0.00 36 1023.5
20260502103557 23 310 0.0 12.9 0.00 0.00 0.00 35 1023.5
20260502103107 23 276 3.2 12.9 0.00 0.00 0.00 35 1023.6
20260502102557 23 5 0.0 6.4 0.00 0.00 0.00 37 1023.6
20260502102055 23 309 0.0 9.7 0.00 0.00 0.00 38 1023.7
20260502101610 22 335 0.0 9.7 0.00 0.00 0.00 38 1023.8
20260502101054 22 18 0.0 9.7 0.00 0.00 0.00 36 1023.8
20260502100554 22 277 1.6 9.7 0.00 0.00 0.00 36 1023.7
20260502091045 22 142 0.0 6.4 0.00 0.00 0.00 42 1024.5
20260502090544 22 186 0.0 6.4 0.00 0.00 0.00 42 1024.4
20260502090110 22 158 0.0 4.8 0.00 0.00 0.00 41 1024.5
20260502071525 18 144 0.0 1.6 0.00 0.00 0.00 52 1025.1
20260502071024 17 143 0.0 0.0 0.00 0.00 0.00 54 1025.2
20260502070523 17 143 0.0 1.6 0.00 0.00 0.00 55 1025.2
20260502070038 17 141 0.0 1.6 0.00 0.00 0.00 55 1025.2
20260502065521 16 151 0.0 1.6 0.00 0.00 0.00 56 1025.4
20260502065020 16 143 0.0 1.6 0.00 0.00 0.00 56 1025.4
20260502064520 16 170 0.0 1.6 0.00 0.00 0.00 58 1025.5
20260502064018 16 139 0.0 1.6 0.00 0.00 0.00 57 1025.4
20260502063516 16 143 0.0 0.0 0.00 0.00 0.00 59 1025.5
20260502063031 15 155 0.0 1.6 0.00 0.00 0.00 62 1025.5
20260502062514 15 162 0.0 1.6 0.00 0.00 0.00 61 1025.7
20260502062019 15 139 0.0 1.6 0.00 0.00 0.00 62 1025.7
20260502061514 15 137 0.0 1.6 0.00 0.00 0.00 60 1025.7
20260502061017 15 155 0.0 0.0 0.00 0.00 0.00 60 1025.6
20260502060511 13 184 0.0 1.6 0.00 0.00 0.00 64 1025.6
20260502060010 13 192 0.0 1.6 0.00 0.00 0.00 65 1025.6
20260502055510 13 186 0.0 1.6 0.00 0.00 0.00 63 1025.7
20260502055009 12 142 0.0 0.0 0.00 0.00 0.00 65 1025.6
20260502054519 12 171 0.0 1.6 0.00 0.00 0.00 68 1025.8
20260502054006 11 141 0.0 3.2 0.00 0.00 0.00 70 1025.8
20260502053506 10 134 0.0 3.2 0.00 0.00 0.00 72 1025.7
20260502053006 10 185 0.0 3.2 0.00 0.00 0.00 72 1025.7
20260502052508 9 183 0.0 0.0 0.00 0.00 0.00 75 1025.8
20260502052006 8 148 0.0 0.0 0.00 0.00 0.00 77 1025.8
20260502051505 8 148 0.0 0.0 0.00 0.00 0.00 77 1025.9
20260502051008 8 148 0.0 0.0 0.00 0.00 0.00 77 1025.8
20260502050508 8 145 0.0 0.0 0.00 0.00 0.00 78 1025.9
20260502050006 8 145 0.0 0.0 0.00 0.00 0.00 78 1025.9
20260502045504 8 145 0.0 0.0 0.00 0.00 0.00 78 1025.8
20260502045005 7 145 0.0 0.0 0.00 0.00 0.00 78 1025.8
20260502044504 7 145 0.0 0.0 0.00 0.00 0.00 78 1025.8
20260502044002 7 145 0.0 0.0 0.00 0.00 0.00 77 1025.7
20260502043502 7 145 0.0 0.0 0.00 0.00 0.00 75 1025.8
20260502043001 8 145 0.0 0.0 0.00 0.00 0.00 74 1025.8
20260502042502 8 141 0.0 0.0 0.00 0.00 0.00 73 1025.6
20260502042100 8 184 0.0 0.0 0.00 0.00 0.00 73 1025.7
20260502041607 8 184 0.0 0.0 0.00 0.00 0.00 74 1025.6
20260502041100 8 153 0.0 0.0 0.00 0.00 0.00 75 1025.7
20260502040600 8 144 0.0 0.0 0.00 0.00 0.00 74 1025.7
20260502040100 8 144 0.0 0.0 0.00 0.00 0.00 73 1025.7
20260502035600 8 143 0.0 0.0 0.00 0.00 0.00 73 1025.6
20260502035100 8 143 0.0 0.0 0.00 0.00 0.00 74 1025.7
20260502034600 8 143 0.0 0.0 0.00 0.00 0.00 75 1025.7
20260502034100 7 146 0.0 0.0 0.00 0.00 0.00 75 1025.7
20260502033602 8 177 0.0 0.0 0.00 0.00 0.00 75 1025.6
20260502033117 8 177 0.0 0.0 0.00 0.00 0.00 75 1025.7
20260502032559 8 181 0.0 0.0 0.00 0.00 0.00 74 1025.5
20260502032102 7 142 0.0 0.0 0.00 0.00 0.00 75 1025.5
20260502031602 7 141 0.0 0.0 0.00 0.00 0.00 76 1025.5
20260502031058 8 141 0.0 0.0 0.00 0.00 0.00 75 1025.4
20260502030556 8 141 0.0 0.0 0.00 0.00 0.00 75 1025.5
20260502030058 8 141 0.0 0.0 0.00 0.00 0.00 74 1025.5
20260502025555 8 141 0.0 0.0 0.00 0.00 0.00 74 1025.6
20260502025058 8 141 0.0 0.0 0.00 0.00 0.00 73 1025.6
20260502024607 8 141 0.0 0.0 0.00 0.00 0.00 73 1025.7
20260502024055 8 141 0.0 0.0 0.00 0.00 0.00 72 1025.7
20260502023552 8 141 0.0 0.0 0.00 0.00 0.00 72 1025.8
20260502023107 9 141 0.0 0.0 0.00 0.00 0.00 71 1025.8
20260502022554 9 141 0.0 0.0 0.00 0.00 0.00 69 1025.7
20260502022050 10 141 0.0 1.6 0.00 0.00 0.00 68 1025.7
20260502021550 10 155 0.0 1.6 0.00 0.00 0.00 67 1025.7
20260502021049 10 188 0.0 3.2 0.00 0.00 0.00 67 1025.8
20260502020549 10 190 0.0 3.2 0.00 0.00 0.00 68 1025.7
20260502020053 9 193 0.0 1.6 0.00 0.00 0.00 70 1025.7
20260502015549 9 136 0.0 0.0 0.00 0.00 0.00 71 1025.7
20260502015048 9 136 0.0 0.0 0.00 0.00 0.00 70 1025.8
20260502014546 9 136 0.0 0.0 0.00 0.00 0.00 70 1025.6
20260502014045 10 138 0.0 0.0 0.00 0.00 0.00 69 1025.7
20260502013546 9 138 0.0 0.0 0.00 0.00 0.00 69 1025.9
20260502013045 9 139 0.0 0.0 0.00 0.00 0.00 69 1025.9
20260502012546 9 139 0.0 0.0 0.00 0.00 0.00 68 1025.9
20260502012044 10 139 0.0 0.0 0.00 0.00 0.00 68 1025.9
20260502011543 10 139 0.0 0.0 0.00 0.00 0.00 67 1025.9
20260502011043 10 137 0.0 0.0 0.00 0.00 0.00 67 1025.9
20260502010542 10 137 0.0 0.0 0.00 0.00 0.00 67 1025.9
20260502010042 10 136 0.0 1.6 0.00 0.00 0.00 67 1025.9
20260502005541 10 137 0.0 1.6 0.00 0.00 0.00 67 1026.0
20260502005041 10 136 0.0 0.0 0.00 0.00 0.00 67 1026.0
20260502004541 10 133 0.0 1.6 0.00 0.00 0.00 66 1026.0
20260502004041 10 134 0.0 1.6 0.00 0.00 0.00 66 1026.0
20260502003540 10 134 0.0 1.6 0.00 0.00 0.00 66 1026.1
20260502003040 10 136 0.0 4.8 0.00 0.00 0.00 66 1026.1
20260502002543 10 133 0.0 4.8 0.00 0.00 0.00 67 1026.2
20260502002040 10 140 0.0 0.0 0.00 0.00 0.00 66 1026.3
20260502001543 11 139 0.0 0.0 0.00 0.00 0.00 65 1026.3
20260502001043 11 139 0.0 0.0 0.00 0.00 0.00 64 1026.3
20260502000540 11 138 0.0 0.0 0.00 0.00 0.00 63 1026.2
20260502000059 11 139 0.0 3.2 0.00 0.00 0.00 62 1026.3
20260501235537 11 141 0.0 3.2 0.00 0.00 0.00 63 1026.1
20260501235035 11 197 0.0 1.6 0.00 0.00 0.00 62 1026.2
20260501234537 11 158 0.0 1.6 0.00 0.00 0.00 63 1026.2
20260501234034 11 146 0.0 1.6 0.00 0.00 0.00 63 1026.2
20260501233533 11 193 0.0 1.6 0.00 0.00 0.00 64 1026.3
20260501233033 11 129 0.0 1.6 0.00 0.00 0.00 65 1026.3
20260501232532 11 129 0.0 1.6 0.00 0.00 0.00 65 1026.2